RH
85 81 80 79 81 80 86 89 69 53 48 46 46 52 60 58 60 62 67 77 84 83 81 80 90 97 97 96 94 92 92 92 95
81 82 82 78 79 81 90 91 74 66 62 55 54 61 60 56 61 63 70 83 86 85 84 71 61 59 66 59 61 68 61 68 82
86 82 82 78 81 93 92 92 79 71 67 63 62 61 64 57 61 65 77 85 89 86 67 58 55 50 46 50 43 48 49 44 50
84 82 82 81 84 92 86 76 71 71 70 67 64 62 64 60 62 60 74 74 87 72 68 68 65 63 60 59 53 50 47 42 40
86 85 83 84 85 85 80 76 70 68 67 66 65 63 62 60 65 63 66 64 72 64 63 67 69 70 70 71 70 60 54 52 47
89 90 87 87 88 88 83 77 69 59 52 54 59 58 56 50 54 60 61 61 74 72 69 68 70 73 74 74 76 75 73 66 63
74 93 94 92 90 88 82 73 59 52 57 53 43 57 51 50 51 58 59 59 67 92 77 74 77 77 77 79 79 81 81 79 77
82 95 97 96 80 82 73 60 60 53 50 53 52 51 52 51 53 54 53 56 60 69 82 76 82 82 78 79 78 77 82 82 85
67 72 73 70 63 58 60 57 52 54 55 55 54 56 57 55 55 56 59 62 63 63 67 72 69 72 82 76 73 74 77 84 89
60 59 62 60 56 55 55 54 52 51 54 58 60 57 55 54 54 58 62 66 67 68 68 67 69 70 78 75 74 69 69 71 85
59 58 59 60 64 60 59 56 59 58 59 56 56 55 56 57 58 58 60 64 60 60 62 65 62 69 74 72 70 67 64 65 65
67 65 73 72 68 63 63 58 59 57 57 60 58 59 57 56 54 53 54 58 60 62 60 61 66 68 75 75 75 71 59 56 53
77 81 81 77 72 68 62 59 58 55 56 58 57 59 59 57 53 52 54 54 58 62 63 70 70 68 71 76 83 68 58 54 53
87 85 81 78 74 70 65 58 53 52 58 59 56 61 58 53 52 53 55 56 61 65 66 68 72 72 72 75 87 69 60 57 60
87 83 81 78 77 69 65 61 54 56 56 65 59 57 55 55 53 54 56 56 67 72 76 75 76 80 80 86 98 90 70 66 66
88 86 81 80 76 69 62 60 57 64 66 63 55 55 53 53 58 59 56 57 70 74 75 77 76 78 91 96 96 86 83 74 73
86 88 87 85 81 74 66 63 67 70 66 60 60 60 47 54 61 62 62 61 68 70 79 84 88 88 96 94 92 81 73 68 86
90 91 87 82 82 80 80 80 88 80 81 73 65 56 52 47 45 60 62 62 63 71 80 87 91 92 92 92 85 75 69 73 89
99 90 85 90 90 90 98 97 91 79 82 80 82 76 62 55 48 55 63 68 67 70 73 78 87 90 94 86 79 76 76 82 92
81 82 80 90 98 99 98 94 88 77 67 56 59 58 57 61 59 59 49 68 68 74 76 76 80 89 92 90 85 82 83 93 95
Wind_Speed
22 22 22 21 18 17 16 15 14 14 14 14 13 14 14 13 10 11 11 11 11 11 11 9 9 9 9 10 8 8 8 8 8
23 22 22 21 18 15 15 15 13 13 12 12 12 12 12 9 9 9 9 9 10 10 10 10 9 8 6 6 6 6 6 7 8
22 22 21 20 17 16 16 14 12 10 10 9 9 10 10 7 8 8 8 9 8 8 9 9 8 8 7 8 7 7 8 8 8
22 23 21 19 16 15 15 13 11 10 8 7 7 7 9 6 5 6 6 7 6 6 7 7 7 7 8 7 8 7 7 7 7
22 21 20 18 15 13 13 11 10 8 7 5 4 5 6 4 4 4 2 4 4 4 5 5 6 6 7 8 8 8 8 8 8
21 18 19 17 16 14 12 10 8 6 4 3 3 3 1 1 2 3 2 2 2 3 4 4 4 5 6 7 7 7 7 8 9
17 16 17 16 16 13 11 9 7 5 3 2 2 1 2 1 1 3 4 2 1 1 3 4 4 5 6 7 7 7 7 8 8
14 14 14 12 13 9 9 8 6 5 5 4 4 3 3 2 2 4 3 2 2 2 3 5 6 7 7 7 8 7 7 8 9
15 14 13 12 12 10 9 7 7 6 6 5 4 4 4 3 3 4 4 3 3 4 5 7 8 9 8 7 7 8 8 8 10
14 13 12 11 11 10 9 7 7 7 7 6 6 6 6 4 3 3 5 3 5 7 8 9 11 12 9 8 5 5 4 5 6
13 12 10 9 9 9 9 8 8 7 7 7 7 6 5 4 4 4 6 5 6 8 7 10 10 10 9 7 4 2 3 5 6
13 11 9 9 8 8 8 8 8 7 7 7 6 6 6 5 5 6 4 7 9 8 11 12 10 12 10 7 5 2 1 1 5
14 12 11 10 10 9 9 9 8 8 8 7 7 6 6 6 7 7 6 8 8 10 14 9 13 12 9 8 6 5 3 1 4
13 11 11 11 11 11 10 10 9 8 8 8 7 6 7 6 6 7 8 9 10 10 11 11 13 10 8 8 10 7 4 1 2
13 10 9 10 11 11 11 11 10 9 8 5 6 7 7 7 7 6 6 4 5 4 4 5 6 5 5 7 9 6 2 1 3
14 11 10 11 11 12 12 12 12 11 7 8 8 9 7 8 3 3 2 4 2 4 4 3 4 5 5 12 9 6 3 1 5
13 11 9 8 10 11 13 12 11 11 11 6 1 3 4 7 2 2 4 2 3 4 4 2 1 3 7 8 10 7 4 2 4
14 12 12 13 13 15 13 11 9 9 5 3 2 2 2 3 5 4 1 3 4 1 2 1 2 5 8 6 6 5 4 3 4
10 9 8 10 13 16 12 10 4 6 4 1 1 4 5 2 2 4 6 3 3 4 3 2 1 1 2 5 6 5 3 2 4
9 6 5 11 16 18 19 15 11 6 4 3 1 2 4 5 3 4 2 5 5 5 4 5 3 4 5 4 6 5 4 1 3
Wind_Direction
146 143 149 141 144 148 139 128 123 118 113 110 107 105 94 83 86 80 74 76 72 69 72 77 71 65 62 62 61 53 45 37 30
150 150 148 147 148 152 136 139 128 121 118 112 108 103 91 92 87 85 82 78 75 72 69 71 71 71 66 57 51 43 34 29 28
152 153 152 152 154 143 141 142 136 129 122 118 113 106 101 82 88 89 87 82 75 72 71 71 70 67 62 54 47 43 37 33 29
158 158 156 158 156 150 144 141 139 137 137 130 119 111 108 93 94 96 94 90 82 74 69 64 59 53 50 46 39 36 35 34 36
160 160 161 162 161 164 153 151 149 145 141 140 129 112 97 92 109 106 127 111 92 70 60 51 43 35 31 28 24 22 21 22 24
159 162 165 167 170 175 166 165 165 160 160 168 171 135 87 112 145 160 229 157 121 55 41 34 24 16 13 8 4 4 7 9 9
161 165 166 174 180 178 180 183 178 164 188 208 192 155 198 193 185 205 247 215 188 280 342 350 343 342 348 356 354 348 344 348 353
154 163 166 173 177 178 186 193 191 210 198 199 210 223 230 231 214 229 252 238 245 262 280 301 303 307 322 334 334 338 333 348 346
167 168 171 175 183 189 191 202 205 206 212 212 223 219 223 232 237 244 284 267 273 284 283 288 300 300 293 305 315 331 328 336 333
171 172 175 181 186 193 196 206 209 210 214 221 222 226 232 237 244 259 273 294 300 296 289 292 289 289 299 292 313 330 326 336 326
172 173 179 184 194 198 203 206 209 211 216 221 229 236 240 250 247 255 276 259 295 300 300 296 307 305 295 278 273 302 339 0 348
171 174 180 188 198 206 209 211 212 218 224 229 236 239 248 242 257 265 276 284 295 285 302 301 294 302 297 260 230 193 258 38 8
179 179 184 188 192 196 209 214 216 220 217 224 227 237 240 257 273 286 281 292 305 313 307 291 297 291 292 243 199 209 189 60 12
186 192 196 192 196 201 215 216 217 219 223 226 237 261 270 280 280 282 301 303 302 298 299 303 304 281 271 220 194 192 181 173 4
199 202 207 208 207 205 211 222 213 224 226 228 250 259 258 266 276 292 300 309 321 315 308 307 286 285 240 191 168 170 177 6 338
201 205 213 216 221 215 221 216 218 210 224 239 241 238 244 257 288 282 277 323 341 345 343 334 271 298 199 165 172 178 184 255 328
200 206 213 227 230 234 227 223 224 222 212 223 73 265 200 165 163 187 313 318 316 335 7 39 212 179 185 209 205 199 215 277 321
203 208 221 237 233 232 232 219 219 221 192 190 289 252 233 35 235 193 273 297 295 311 348 71 141 203 229 201 215 230 245 295 348
196 196 221 244 236 240 196 194 190 156 157 206 210 301 313 303 296 170 202 207 250 268 271 257 230 209 225 216 226 225 246 310 353
221 231 232 253 239 222 214 175 174 173 163 181 196 244 256 248 274 293 248 205 245 257 268 265 236 229 229 235 245 234 236 262 27